Location: Budapest
(47.4979°N, 19.0402°E)
Time: 14:07:52
(UTC+02:00)

ISS - Visible Passes

Search period start: 22 May 2019 00:00
Search period end: 01 June 2019 00:00
Orbit: 407 x 410 km, 51.6° (Epoch: 22 May)

Date Brightness Start Highest point End Pass type
(mag) Time Alt. Az. Time Alt. Az. Time Alt. Az.
22 May -2.7 01:12:03 10° WNW 01:14:15 38° NW 01:14:15 38° NW visible
22 May -3.8 21:07:20 10° WSW 21:10:38 89° NNW 21:13:57 10° ENE visible
22 May -2.4 22:44:19 10° WNW 22:47:28 39° N 22:50:36 10° ENE visible
23 May -3.1 00:21:09 10° WNW 00:24:25 52° NNE 00:24:37 51° NNE visible
23 May -2.6 21:53:15 10° W 21:56:27 44° N 21:59:39 10° ENE visible
23 May -2.6 23:30:15 10° WNW 23:33:26 43° N 23:35:08 23° ENE visible
24 May -1.6 01:06:51 10° WNW 01:07:50 18° WNW 01:07:50 18° WNW visible
24 May -3.0 21:02:12 10° W 21:05:28 54° NNW 21:08:43 10° ENE visible
24 May -2.4 22:39:16 10° WNW 22:42:25 39° N 22:45:33 10° ENE visible
25 May -3.1 00:15:55 10° WNW 00:18:26 48° WNW 00:18:26 48° WNW visible
25 May -2.3 21:48:14 10° WNW 21:51:22 38° N 21:54:30 10° ENE visible
25 May -3.4 23:25:01 10° WNW 23:28:17 60° NNE 23:29:04 44° ENE visible
26 May -1.0 01:01:45 10° W 01:01:47 10° W 01:01:47 10° W visible
26 May -2.9 22:34:04 10° WNW 22:37:17 47° NNE 22:39:44 16° E visible
27 May -2.2 00:10:41 10° WNW 00:12:26 27° W 00:12:26 27° W visible
27 May -2.5 21:43:05 10° WNW 21:46:14 40° N 21:49:24 10° E visible
27 May -4.0 23:19:42 10° WNW 23:23:01 80° SSW 23:23:07 78° S visible
28 May -3.6 22:28:44 10° WNW 22:32:03 71° NNE 22:33:50 25° E visible
29 May -1.5 00:05:38 10° W 00:06:32 15° W 00:06:32 15° W visible
29 May -3.1 21:37:47 10° WNW 21:41:01 52° NNE 21:44:16 10° E visible
29 May -3.1 23:14:26 10° WNW 23:17:15 38° SW 23:17:15 38° SW visible
30 May -3.8 22:23:22 10° WNW 22:26:39 64° SSW 22:28:00 31° SE visible
31 May -3.8 21:32:22 10° WNW 21:35:41 85° NNE 21:38:46 12° ESE visible
31 May -1.9 23:09:28 10° W 23:11:29 19° SW 23:11:29 19° SW visible
